Saranac Lake, NY

5:55 PM EDT on April 23, 2018 (GMT -0400)
Adirondack Regional

Weather History for KSLK - October, 2014

Change the Weather History Date:

Wednesday, October 8, 2014

  Actual Average Record
Temperature  
Mean Temperature 50 °F 45 °F  
Max Temperature 56 °F 56 °F 80 °F (1963)
Min Temperature 43 °F 33 °F 17 °F (1964)
Degree Days  
Heating Degree Days 15 20  
Month to date heating degree days 109 153  
Since 1 July heating degree days 723 738  
Cooling Degree Days 0 0  
Month to date cooling degree days 0 0  
Year to date cooling degree days 81 114  
Moisture  
Dew Point 46 °F    
Average Humidity 78    
Maximum Humidity 100    
Minimum Humidity 56    
Precipitation  
Precipitation 0.58 in 0.13 in 1.27 in (1976)
Month to date precipitation 1.20 1.01  
Year to date precipitation 29.16 28.84  
Sea Level Pressure  
Sea Level Pressure 29.66 in    
Wind  
Wind Speed 12 mph (SW)    
Max Wind Speed 25 mph    
Max Gust Speed 39 mph    
Visibility 7 miles    
Events Rain    
T = Trace of Precipitation, MM = Missing Value Source: NWS Daily Summary

Daily Weather History Graph

Daily Weather History Graph

Search for Another Location

Airport or City:

Astronomy

Oct. 08, 2014 Rise Set
Actual Time 7:03 AM EDT 6:24 PM EDT
Civil Twilight 6:34 AM EDT 6:53 PM EDT
Nautical Twilight 6:00 AM EDT 7:27 PM EDT
Astronomical Twilight 5:26 AM EDT 8:01 PM EDT
Moon 6:36 PM EDT (10/8) 7:07 AM EDT (10/8)
Length of Visible Light 12h 19m
Length of Day
11h 21m
Full, 100% of the Moon is Illuminated
Oct 8
Full
Oct 15
Last Quarter
Oct 23
New
Oct 30
First Quarter
Nov 6
Full

Hourly Weather History & Observations

Time (EDT) Temp. Windchill Dew Point Humidity Pressure Visibility Wind Dir Wind Speed Gust Speed Precip Events Conditions
12:51 AM 54.0 °F - 45.0 °F 72% 29.78 in 10.0 mi SSE 6.9 mph - N/A   Overcast
1:51 AM 55.9 °F - 46.9 °F 72% 29.73 in 10.0 mi South 12.7 mph 17.3 mph N/A   Overcast
2:51 AM 55.9 °F - 48.9 °F 77% 29.68 in 10.0 mi South 8.1 mph - N/A   Overcast
3:51 AM 53.1 °F - 52.0 °F 96% 29.62 in 2.5 mi SE 4.6 mph - 0.12 in Rain Heavy Rain
4:01 AM 53.1 °F - 52.0 °F 96% 29.62 in 4.0 mi Calm Calm - 0.03 in Rain Rain
4:19 AM 53.1 °F - 52.0 °F 96% 29.60 in 2.5 mi Calm Calm - 0.10 in Rain Heavy Rain
4:32 AM 53.1 °F - 52.0 °F 96% 29.59 in 3.0 mi ENE 4.6 mph - 0.14 in Rain Rain
4:51 AM 53.1 °F - 52.0 °F 96% 29.57 in 5.0 mi ENE 4.6 mph - 0.15 in Rain Light Rain
5:20 AM 52.0 °F - 52.0 °F 100% 29.57 in 7.0 mi Calm Calm - 0.02 in Rain Light Rain
5:51 AM 52.0 °F - 51.1 °F 97% 29.56 in 2.0 mi Calm Calm - 0.03 in Rain Light Rain
6:04 AM 54.0 °F - 51.1 °F 90% 29.56 in 7.0 mi SSW 15.0 mph 20.7 mph 0.00 in Rain Light Rain
6:51 AM 53.1 °F - 51.1 °F 93% 29.58 in 6.0 mi SW 12.7 mph 20.7 mph 0.07 in Rain Rain
7:00 AM 52.0 °F - 51.1 °F 97% 29.58 in 4.0 mi SW 9.2 mph - 0.02 in Rain Rain
7:07 AM 52.0 °F - 51.1 °F 97% 29.58 in 5.0 mi SW 10.4 mph - 0.03 in Rain Rain
7:43 AM 52.0 °F - 51.1 °F 97% 29.59 in 10.0 mi SW 10.4 mph 20.7 mph 0.03 in   Overcast
7:51 AM 52.0 °F - 51.1 °F 97% 29.61 in 10.0 mi SW 10.4 mph - 0.03 in   Overcast
8:00 AM 52.0 °F - 50.0 °F 93% 29.59 in 10.0 mi SW 9.2 mph - N/A   Overcast
8:51 AM 53.1 °F - 50.0 °F 89% 29.62 in 8.0 mi SW 15.0 mph - 0.00 in Rain Light Rain
9:00 AM 52.0 °F - 50.0 °F 93% 29.60 in 5.0 mi SW 13.8 mph 24.2 mph 0.01 in Rain Light Rain
9:06 AM 52.0 °F - 50.0 °F 93% 29.61 in 2.5 mi WSW 11.5 mph - 0.04 in Rain Heavy Rain
9:11 AM 52.0 °F - 50.0 °F 93% 29.61 in 1.8 mi WSW 13.8 mph 21.9 mph 0.06 in Rain Heavy Rain
9:14 AM 52.0 °F - 50.0 °F 93% 29.61 in 2.0 mi WSW 12.7 mph 21.9 mph 0.06 in Rain Light Rain
9:19 AM 52.0 °F - 48.9 °F 89% 29.62 in 7.0 mi WSW 13.8 mph 21.9 mph 0.06 in Rain Light Rain
9:32 AM 52.0 °F - 48.9 °F 89% 29.62 in 8.0 mi SW 12.7 mph 21.9 mph 0.06 in Rain Light Rain
9:51 AM 51.1 °F - 48.9 °F 92% 29.65 in 10.0 mi SW 11.5 mph 21.9 mph 0.06 in   Overcast
10:20 AM 52.0 °F - 48.9 °F 89% 29.64 in 10.0 mi SW 15.0 mph - N/A   Overcast
10:51 AM 52.0 °F - 48.0 °F 86% 29.66 in 10.0 mi SW 15.0 mph 20.7 mph N/A   Overcast
11:19 AM 52.0 °F - 48.9 °F 89% 29.65 in 10.0 mi SW 11.5 mph 24.2 mph 0.01 in   Overcast
11:33 AM 51.1 °F - 48.0 °F 89% 29.66 in 10.0 mi SW 15.0 mph 19.6 mph 0.01 in   Overcast
11:51 AM 50.0 °F - 48.0 °F 93% 29.67 in 5.0 mi SW 8.1 mph 19.6 mph 0.02 in Rain Light Rain
11:57 AM 50.0 °F - 48.0 °F 93% 29.66 in 2.5 mi West 10.4 mph - 0.01 in Rain Rain
12:01 PM 50.0 °F - 48.0 °F 93% 29.67 in 1.8 mi WSW 13.8 mph 21.9 mph 0.03 in Rain Heavy Rain
12:10 PM 50.0 °F - 46.0 °F 86% 29.68 in 3.0 mi WSW 15.0 mph 21.9 mph 0.05 in Rain Rain
12:16 PM 48.9 °F - 46.0 °F 90% 29.68 in 2.0 mi West 13.8 mph 32.2 mph 0.07 in Rain Heavy Rain
12:31 PM 48.9 °F - 46.0 °F 90% 29.67 in 10.0 mi WSW 11.5 mph - 0.08 in   Overcast
12:51 PM 53.1 °F - 48.9 °F 86% 29.67 in 10.0 mi SW 11.5 mph 23.0 mph 0.08 in   Scattered Clouds
1:51 PM 53.1 °F - 44.1 °F 71% 29.65 in 10.0 mi SW 12.7 mph - N/A   Mostly Cloudy
2:51 PM 48.0 °F - 42.1 °F 80% 29.69 in 7.0 mi WSW 20.7 mph 34.5 mph 0.01 in   Overcast
3:51 PM 50.0 °F - 43.0 °F 77% 29.67 in 10.0 mi SW 15.0 mph 26.5 mph 0.01 in   Overcast
4:51 PM 51.1 °F - 39.9 °F 66% 29.68 in 10.0 mi WSW 12.7 mph 23.0 mph N/A   Mostly Cloudy
5:51 PM 48.9 °F - 35.1 °F 59% 29.72 in 10.0 mi WSW 12.7 mph 34.5 mph N/A   Overcast
6:51 PM 48.9 °F - 33.1 °F 54% 29.74 in 10.0 mi WSW 18.4 mph 39.1 mph N/A   Overcast
7:51 PM 46.9 °F - 33.1 °F 59% 29.76 in 10.0 mi WSW 16.1 mph 23.0 mph N/A   Overcast
8:51 PM 45.0 °F 39.3 °F 36.0 °F 71% 29.78 in 10.0 mi WSW 11.5 mph - N/A   Overcast
9:51 PM 45.0 °F 39.7 °F 35.1 °F 68% 29.80 in 10.0 mi WSW 10.4 mph 25.3 mph N/A   Overcast
10:41 PM 44.1 °F 38.1 °F 36.0 °F 73% 29.80 in 10.0 mi WSW 11.5 mph 20.7 mph N/A   Overcast
10:51 PM 44.1 °F 39.0 °F 36.0 °F 73% 29.82 in 10.0 mi SW 9.2 mph - N/A   Overcast
11:04 PM 44.1 °F 37.1 °F 36.0 °F 73% 29.80 in 10.0 mi WSW 15.0 mph 20.7 mph N/A   Overcast
11:51 PM 43.0 °F 36.8 °F 35.1 °F 74% 29.82 in 10.0 mi WSW 11.5 mph 25.3 mph N/A   Overcast